2023/01/29 00:00:00,102.6,-3.5
2023/01/29 00:10:00,102.4,-3.3
2023/01/29 00:20:00,102.4,-3.1
2023/01/29 00:30:00,102.2,-3.4
2023/01/29 00:40:00,102.2,-3.4
2023/01/29 00:50:00,102.8,-3.4
2023/01/29 01:00:00,103.5,-3.5
2023/01/29 01:10:00,103.8,-3.3
2023/01/29 01:20:00,103.7,-3.2
2023/01/29 01:30:00,103.7,-3.3
2023/01/29 01:40:00,103.7,-3.3
2023/01/29 01:50:00,104.0,-3.2
2023/01/29 02:00:00,103.9,-3.5
2023/01/29 02:10:00,103.7,-3.3
2023/01/29 02:20:00,103.6,-3.1
2023/01/29 02:30:00,103.4,-3.1
2023/01/29 02:40:00,103.4,-3.1
2023/01/29 02:50:00,103.3,-3.1
2023/01/29 03:00:00,104.0,-3.2
2023/01/29 03:10:00,104.7,-3.3
2023/01/29 03:20:00,104.8,-3.0
2023/01/29 03:30:00,104.8,-3.4
2023/01/29 03:40:00,105.0,-3.2
2023/01/29 03:50:00,104.9,-3.2
2023/01/29 04:00:00,104.7,-3.1
2023/01/29 04:10:00,104.6,-3.1
2023/01/29 04:20:00,104.7,-3.0
2023/01/29 04:30:00,105.0,-3.1
2023/01/29 04:40:00,104.9,-3.1
2023/01/29 04:50:00,104.8,-3.1
2023/01/29 05:00:00,104.6,-3.0
2023/01/29 05:10:00,104.5,-3.2
2023/01/29 05:20:00,104.3,-3.2
2023/01/29 05:30:00,104.2,-3.4
2023/01/29 05:40:00,104.0,-3.5
2023/01/29 05:50:00,104.0,-3.4
2023/01/29 06:00:00,103.9,-3.4
2023/01/29 06:10:00,103.8,-3.7
2023/01/29 06:20:00,103.7,-3.7
2023/01/29 06:30:00,103.5,-3.9
2023/01/29 06:40:00,103.3,-3.9
2023/01/29 06:50:00,103.2,-3.9
2023/01/29 07:00:00,103.0,-3.6
2023/01/29 07:10:00,102.9,-2.8
2023/01/29 07:20:00,102.8,-2.9
2023/01/29 07:30:00,103.3,-3.0
2023/01/29 07:40:00,103.1,-2.5
2023/01/29 07:50:00,102.8,-2.8
2023/01/29 08:00:00,102.6,-2.7
2023/01/29 08:10:00,102.4,-2.0
2023/01/29 08:20:00,102.2,-2.1
2023/01/29 08:30:00,101.9,-2.4
2023/01/29 08:40:00,101.9,-1.4
2023/01/29 08:50:00,101.7,-1.4
2023/01/29 09:00:00,101.5,-1.1
2023/01/29 09:10:00,101.6,-1.3
2023/01/29 09:20:00,101.6,-0.7
2023/01/29 09:30:00,102.2, 0.1
2023/01/29 09:40:00,102.4, 0.7
2023/01/29 09:50:00,101.8, 0.2
2023/01/29 10:00:00,101.4, 0.5
2023/01/29 10:10:00,101.1, 0.2
2023/01/29 10:20:00,100.7, 0.0
2023/01/29 10:30:00,100.4, 0.1
2023/01/29 10:40:00,100.8, 1.1
2023/01/29 10:50:00,100.7, 1.9
2023/01/29 11:00:00,100.7, 2.7
2023/01/29 11:10:00,100.4, 3.3
2023/01/29 11:20:00,100.0, 2.7
2023/01/29 11:30:00,99.7, 3.0
2023/01/29 11:40:00,99.5, 3.5
2023/01/29 11:50:00,99.1, 3.3
2023/01/29 12:00:00,98.7, 3.5
2023/01/29 12:10:00,98.5, 3.2
2023/01/29 12:20:00,98.2, 1.9
2023/01/29 12:30:00,98.2, 3.2
2023/01/29 12:40:00,98.4, 9.1
2023/01/29 12:50:00,126.4, 7.3
2023/01/29 13:00:00,125.8, 9.1
2023/01/29 13:10:00,125.5,10.6
2023/01/29 13:20:00,116.0,10.8
2023/01/29 13:30:00,---, 9.2
2023/01/29 13:40:00,93.0, 6.2
2023/01/29 13:50:00,92.5, 4.9
2023/01/29 14:00:00,---, 4.3
2023/01/29 14:10:00,118.6, 4.0
2023/01/29 14:20:00,120.7, 3.6
2023/01/29 14:30:00,120.6, 3.1
2023/01/29 14:40:00,119.4, 3.1
2023/01/29 14:50:00,118.9, 3.5
2023/01/29 15:00:00,118.5, 3.5
2023/01/29 15:10:00,118.2, 3.8
2023/01/29 15:20:00,117.9, 3.2
2023/01/29 15:30:00,117.3, 2.8
2023/01/29 15:40:00,117.1, 2.0
2023/01/29 15:50:00,116.8, 2.0
2023/01/29 16:00:00,116.5, 1.3
2023/01/29 16:10:00,116.0, 0.5
2023/01/29 16:20:00,115.7, 0.3
2023/01/29 16:30:00,115.5,-0.5
2023/01/29 16:40:00,115.2,-0.1
2023/01/29 16:50:00,114.6,-0.2
2023/01/29 17:00:00,114.6, 0.0
2023/01/29 17:10:00,114.7,-0.8
2023/01/29 17:20:00,114.4,-1.4
2023/01/29 17:30:00,114.2,-1.7
2023/01/29 17:40:00,114.0,-1.8
2023/01/29 17:50:00,113.8,-2.3
2023/01/29 18:00:00,113.6,-2.4
2023/01/29 18:10:00,113.3,-2.8
2023/01/29 18:20:00,113.2,-3.1
2023/01/29 18:30:00,112.8,-2.8
2023/01/29 18:40:00,112.4,-2.9
2023/01/29 18:50:00,112.3,-3.1
2023/01/29 19:00:00,112.1,-3.1
2023/01/29 19:10:00,111.8,-2.9
2023/01/29 19:20:00,111.4,-3.1
2023/01/29 19:30:00,111.2,-3.2
2023/01/29 19:40:00,111.2,-2.8
2023/01/29 19:50:00,111.1,-3.0
2023/01/29 20:00:00,111.0,-3.2
2023/01/29 20:10:00,111.0,-2.7
2023/01/29 20:20:00,110.8,-2.9
2023/01/29 20:30:00,110.5,-3.1
2023/01/29 20:40:00,110.2,-3.0
2023/01/29 20:50:00,110.1,-3.3
2023/01/29 21:00:00,110.2,-3.6
2023/01/29 21:10:00,110.1,-3.3
2023/01/29 21:20:00,110.1,-3.3
2023/01/29 21:30:00,110.0,-3.3
2023/01/29 21:40:00,109.8,-3.4
2023/01/29 21:50:00,109.7,-3.2
2023/01/29 22:00:00,109.6,-3.3
2023/01/29 22:10:00,109.3,-3.3
2023/01/29 22:20:00,109.3,-3.1
2023/01/29 22:30:00,109.3,-3.0
2023/01/29 22:40:00,109.1,-3.0
2023/01/29 22:50:00,109.0,-2.8
2023/01/29 23:00:00,108.8,-2.8
2023/01/29 23:10:00,108.5,-2.9
2023/01/29 23:20:00,108.1,-2.8
2023/01/29 23:30:00,107.8,-2.6
2023/01/29 23:40:00,107.5,-2.8
2023/01/29 23:50:00,107.5,-2.8
